Location: Unspecified
(50.0000°N, 15.0000°E)
Time: 04:30:47
(UTC+01:00)

ISS - Pass Details

Date: 03 December 2021
Orbit: 413 x 422 km, 51.6° (Epoch: 22 January)

Event Time Altitude Azimuth Distance (km) Brightness Sun altitude
Rises 17:01:33 0° 283° (WNW) 2,386 1.0 -9.5°
Reaches altitude 10° 17:03:40 10° 285° (WNW) 1,518 -0.1 -9.8°
Maximum altitude 17:07:04 77° 10° (N) 440 -3.8 -10.3°
Enters shadow 17:10:02 13° 98° (E) 1,338 -1.7 -10.7°
